Sturgis, MI

4:16 AM EDT on April 21, 2018 (GMT -0400)
Kirsch Municipal

Weather History for KIRS - March, 2014

Change the Weather History Date:

Sunday, March 16, 2014

  Actual Average (KHAI) Record (KHAI)
Temperature  
Mean Temperature 20 °F -  
Max Temperature 28 °F 45 °F 76 °F (2012)
Min Temperature 12 °F 25 °F 3 °F (1993)
Degree Days  
Heating Degree Days 45    
Moisture  
Dew Point 8 °F    
Average Humidity 61    
Maximum Humidity 73    
Minimum Humidity 47    
Precipitation  
Precipitation 0.00 in - - ()
Sea Level Pressure  
Sea Level Pressure 30.25 in    
Wind  
Wind Speed 13 mph (NE)    
Max Wind Speed 18 mph    
Max Gust Speed 25 mph    
Visibility 10 miles    
Events      
Averages and records for this station are not official NWS values.
T = Trace of Precipitation, MM = Missing Value Source: NWS Daily Summary

Daily Weather History Graph

Daily Weather History Graph

Search for Another Location

Airport or City:

Astronomy

Mar. 16, 2014 Rise Set
Actual Time 7:51 AM EDT 7:49 PM EDT
Civil Twilight 7:24 AM EDT 8:17 PM EDT
Nautical Twilight 6:51 AM EDT 8:49 PM EDT
Astronomical Twilight 6:18 AM EDT 9:22 PM EDT
Moon 8:07 PM EDT (3/16) 7:34 AM EDT (3/16)
Length of Visible Light 12h 53m
Length of Day
11h 57m
Full, 100% of the Moon is Illuminated
Mar 16
Full
Mar 16
Full
Mar 23
Last Quarter
Mar 30
New
Apr 7
First Quarter

Hourly Weather History & Observations

Time (EDT) Temp. Windchill Dew Point Humidity Pressure Visibility Wind Dir Wind Speed Gust Speed Precip Events Conditions
12:15 AM 28.4 °F 18.0 °F 14.0 °F 55% 30.22 in 10.0 mi North 12.7 mph 16.1 mph N/A   Overcast
12:35 AM 28.4 °F 17.0 °F 14.0 °F 55% 30.21 in 10.0 mi NNE 15.0 mph 19.6 mph N/A   Overcast
12:54 AM 26.6 °F 15.2 °F 15.8 °F 64% 30.21 in 10.0 mi NNE 13.8 mph - N/A   Overcast
1:15 AM 26.6 °F 16.2 °F 15.8 °F 64% 30.22 in 10.0 mi NNE 11.5 mph - N/A   Mostly Cloudy
1:35 AM 26.6 °F 15.7 °F 14.0 °F 59% 30.22 in 10.0 mi NNE 12.7 mph 21.9 mph N/A   Mostly Cloudy
1:54 AM 26.6 °F 14.7 °F 12.2 °F 55% 30.24 in 10.0 mi NE 15.0 mph - N/A   Overcast
2:15 AM 26.6 °F 14.7 °F 8.6 °F 47% 30.25 in 10.0 mi NNE 15.0 mph - N/A   Scattered Clouds
2:35 AM 24.8 °F 13.4 °F 8.6 °F 50% 30.26 in 10.0 mi NE 12.7 mph 17.3 mph N/A   Mostly Cloudy
2:54 AM 24.8 °F 14.6 °F 8.6 °F 50% 30.27 in 10.0 mi NE 10.4 mph 16.1 mph N/A   Overcast
3:15 AM 24.8 °F 13.4 °F 12.2 °F 59% 30.28 in 10.0 mi NNE 12.7 mph 16.1 mph N/A   Overcast
3:34 AM 23.0 °F 11.1 °F 12.2 °F 63% 30.28 in 10.0 mi NNE 12.7 mph - N/A   Overcast
3:55 AM 21.2 °F 7.8 °F 10.4 °F 63% 30.27 in 10.0 mi NE 15.0 mph 19.6 mph N/A   Overcast
4:15 AM 21.2 °F 10.1 °F 8.6 °F 58% 30.26 in 10.0 mi NE 10.4 mph - N/A   Mostly Cloudy
4:34 AM 19.4 °F 7.9 °F 8.6 °F 63% 30.27 in 10.0 mi NNE 10.4 mph 17.3 mph N/A   Overcast
4:55 AM 19.4 °F 7.9 °F 8.6 °F 63% 30.27 in 10.0 mi NE 10.4 mph - N/A   Overcast
5:15 AM 19.4 °F 6.6 °F 6.8 °F 58% 30.27 in 10.0 mi NE 12.7 mph - N/A   Overcast
5:34 AM 19.4 °F 7.2 °F 6.8 °F 58% 30.27 in 10.0 mi NE 11.5 mph 16.1 mph N/A   Overcast
5:55 AM 17.6 °F 2.7 °F 6.8 °F 63% 30.28 in 10.0 mi NNE 16.1 mph 20.7 mph N/A   Overcast
6:14 AM 17.6 °F 5.0 °F 6.8 °F 63% 30.28 in 10.0 mi NNE 11.5 mph 21.9 mph N/A   Overcast
6:35 AM 15.8 °F 0.9 °F 5.0 °F 62% 30.29 in 10.0 mi NNE 15.0 mph 19.6 mph N/A   Overcast
6:55 AM 15.8 °F 0.3 °F 5.0 °F 62% 30.30 in 10.0 mi NNE 16.1 mph 23.0 mph N/A   Overcast
7:15 AM 15.8 °F 1.4 °F 6.8 °F 68% 30.30 in 10.0 mi NNE 13.8 mph - N/A   Overcast
7:35 AM 15.8 °F 0.9 °F 5.0 °F 62% 30.30 in 10.0 mi NE 15.0 mph - N/A   Overcast
7:54 AM 15.8 °F 2.1 °F 5.0 °F 62% 30.29 in 10.0 mi NE 12.7 mph 21.9 mph N/A   Overcast
8:15 AM 14.0 °F -2.0 °F 6.8 °F 73% 30.30 in 10.0 mi NE 16.1 mph - N/A   Overcast
8:35 AM 12.2 °F -2.5 °F 5.0 °F 73% 30.30 in 10.0 mi NNE 12.7 mph 20.7 mph N/A   Overcast
8:54 AM 12.2 °F -5.3 °F 5.0 °F 73% 30.30 in 10.0 mi NE 18.4 mph - N/A   Overcast
9:15 AM 12.2 °F -3.7 °F 5.0 °F 73% 30.31 in 10.0 mi NE 15.0 mph 23.0 mph N/A   Overcast
9:35 AM 12.2 °F -3.1 °F 5.0 °F 73% 30.31 in 10.0 mi NE 13.8 mph - N/A   Overcast
9:54 AM 12.2 °F -4.8 °F 3.2 °F 67% 30.30 in 10.0 mi NNE 17.3 mph - N/A   Overcast
10:14 AM 12.2 °F -4.3 °F 3.2 °F 67% 30.30 in 10.0 mi NE 16.1 mph 25.3 mph N/A   Mostly Cloudy
10:35 AM 14.0 °F -3.0 °F 5.0 °F 67% 30.31 in 10.0 mi ENE 18.4 mph 23.0 mph N/A   Mostly Cloudy
10:54 AM 14.0 °F -2.0 °F 3.2 °F 62% 30.31 in 10.0 mi ENE 16.1 mph 23.0 mph N/A   Mostly Cloudy
11:15 AM 14.0 °F -0.8 °F 3.2 °F 62% 30.31 in 10.0 mi NE 13.8 mph 18.4 mph N/A   Scattered Clouds
11:35 AM 15.8 °F 0.9 °F 5.0 °F 62% 30.32 in 10.0 mi NE 15.0 mph - N/A   Clear
11:54 AM 17.6 °F 2.7 °F 6.8 °F 63% 30.32 in 10.0 mi East 16.1 mph - N/A   Clear
12:15 PM 17.6 °F 2.7 °F 6.8 °F 63% 30.33 in 10.0 mi ENE 16.1 mph - N/A   Clear
12:35 PM 17.6 °F 4.3 °F 6.8 °F 63% 30.33 in 10.0 mi NE 12.7 mph - N/A   Clear
12:54 PM 19.4 °F 7.2 °F 8.6 °F 63% 30.33 in 10.0 mi ENE 11.5 mph - N/A   Clear
1:15 PM 21.2 °F 8.3 °F 8.6 °F 58% 30.33 in 10.0 mi ENE 13.8 mph 17.3 mph N/A   Clear
1:35 PM 21.2 °F 7.8 °F 8.6 °F 58% 30.32 in 10.0 mi ENE 15.0 mph 19.6 mph N/A   Clear
1:54 PM 21.2 °F 8.9 °F 10.4 °F 63% 30.31 in 10.0 mi NE 12.7 mph 18.4 mph N/A   Clear
2:15 PM 21.2 °F 8.3 °F 8.6 °F 58% 30.29 in 10.0 mi NE 13.8 mph 23.0 mph N/A   Clear
2:35 PM 21.2 °F 7.3 °F 10.4 °F 63% 30.27 in 10.0 mi ENE 16.1 mph 20.7 mph N/A   Clear
2:54 PM 23.0 °F 11.7 °F 10.4 °F 59% 30.26 in 10.0 mi NE 11.5 mph - N/A   Clear
3:15 PM 23.0 °F 10.6 °F 10.4 °F 59% 30.25 in 10.0 mi NE 13.8 mph 23.0 mph N/A   Clear
3:34 PM 23.0 °F 9.6 °F 10.4 °F 59% 30.23 in 10.0 mi ENE 16.1 mph 21.9 mph N/A   Clear
3:54 PM 23.0 °F 10.1 °F 10.4 °F 59% 30.22 in 10.0 mi NE 15.0 mph 20.7 mph N/A   Clear
4:15 PM 24.8 °F 11.9 °F 10.4 °F 54% 30.22 in 10.0 mi NE 16.1 mph 21.9 mph N/A   Clear
4:34 PM 24.8 °F 14.6 °F 10.4 °F 54% 30.22 in 10.0 mi NE 10.4 mph 18.4 mph N/A   Clear
4:55 PM 24.8 °F 13.4 °F 10.4 °F 54% 30.21 in 10.0 mi NE 12.7 mph 18.4 mph N/A   Clear
5:15 PM 24.8 °F 14.6 °F 12.2 °F 59% 30.20 in 10.0 mi NE 10.4 mph 20.7 mph N/A   Clear
5:34 PM 24.8 °F 12.9 °F 10.4 °F 54% 30.20 in 10.0 mi NE 13.8 mph 18.4 mph N/A   Clear
5:55 PM 24.8 °F 14.6 °F 10.4 °F 54% 30.19 in 10.0 mi ENE 10.4 mph - N/A   Clear
6:15 PM 24.8 °F 15.3 °F 10.4 °F 54% 30.19 in 10.0 mi NE 9.2 mph - N/A   Clear
6:34 PM 24.8 °F 15.3 °F 10.4 °F 54% 30.19 in 10.0 mi NE 9.2 mph 16.1 mph N/A   Clear
6:55 PM 23.0 °F 11.7 °F 10.4 °F 59% 30.19 in 10.0 mi NNE 11.5 mph - N/A   Clear
7:14 PM 21.2 °F 8.3 °F 10.4 °F 63% 30.19 in 10.0 mi NNE 13.8 mph 17.3 mph N/A   Clear
7:34 PM 21.2 °F 8.9 °F 8.6 °F 58% 30.18 in 10.0 mi NNE 12.7 mph - N/A   Clear
7:55 PM 21.2 °F 10.1 °F 8.6 °F 58% 30.18 in 10.0 mi NE 10.4 mph - N/A   Clear
8:14 PM 19.4 °F 7.2 °F 8.6 °F 63% 30.18 in 10.0 mi NNE 11.5 mph - N/A   Clear
8:34 PM 19.4 °F 6.0 °F 8.6 °F 63% 30.18 in 10.0 mi NE 13.8 mph 17.3 mph N/A   Clear
8:55 PM 19.4 °F 8.6 °F 6.8 °F 58% 30.18 in 10.0 mi NE 9.2 mph - N/A   Clear
9:14 PM 19.4 °F 7.9 °F 6.8 °F 58% 30.19 in 10.0 mi NE 10.4 mph - N/A   Clear
9:34 PM 17.6 °F 4.3 °F 6.8 °F 63% 30.18 in 10.0 mi NE 12.7 mph 16.1 mph N/A   Clear
9:55 PM 17.6 °F 5.0 °F 6.8 °F 63% 30.18 in 10.0 mi NE 11.5 mph - N/A   Clear
10:15 PM 17.6 °F 6.4 °F 6.8 °F 63% 30.17 in 10.0 mi NE 9.2 mph 16.1 mph N/A   Clear
10:35 PM 17.6 °F 4.3 °F 5.0 °F 58% 30.16 in 10.0 mi NNE 12.7 mph - N/A   Clear
10:55 PM 17.6 °F 5.7 °F 5.0 °F 58% 30.16 in 10.0 mi NE 10.4 mph - N/A   Clear
11:14 PM 15.8 °F 4.2 °F 3.2 °F 58% 30.15 in 10.0 mi NE 9.2 mph - N/A   Clear
11:35 PM 15.8 °F 4.2 °F 3.2 °F 58% 30.14 in 10.0 mi NE 9.2 mph - N/A   Clear
11:55 PM 15.8 °F 5.1 °F 3.2 °F 58% 30.13 in 10.0 mi NE 8.1 mph - N/A   Clear